Regional Weather Roundup
Issued by NWS Newport/Morehead, NC

Current Version | Previous Version | Text Only | Print | Product List | Glossary Off
Versions: 1 2 3 4 5 6 7 8 9 10 11 12 13 14 15 16 17 18 19 20 21 22 23 24 25 26 27 28 29 30 31 32 33 34 35 36 37 38 39 40 41 42 43 44 45 46 47 48 49 50
000 ASUS42 KMHX 222225 RWRMHX WEATHER ROUNDUP FOR EASTERN NORTH CAROLINA NATIONAL WEATHER SERVICE NEWPORT/MOREHEAD CITY NC 500 PM EST THU FEB 22 2018 NOTE: "FAIR" INDICATES FEW OR NO CLOUDS BELOW 12,000 FEET WITH NO SIGNIFICANT WEATHER AND/OR OBSTRUCTIONS TO VISIBILITY NCZ015>017-031-032-045>047-102-103-222300- NORTH COAST CITY SKY/WX TMP DP RH WIND PRES REMARKS EDENTON FAIR 77 64 63 SW5 30.39S ELIZABETH CITY FAIR 76 64 66 SW12 30.38S KITTY HAWK FAIR 71 60 68 CALM 30.39R MANTEO FAIR 67 60 75 S10 30.40S $$ NCZ045>047-081-094-103-104-222300- CENTRAL COAST CITY SKY/WX TMP DP RH WIND PRES REMARKS FRISCO FAIR 69 64 84 VRB6 30.43R $$ NCZ095-097-098-100-101-222300- SOUTHERN COAST CITY SKY/WX TMP DP RH WIND PRES REMARKS BEAUFORT FAIR 70 62 76 S10 30.42S CEDAR ISLAND NOT AVBL JACKSONVILLE FAIR 75 62 64 S13 30.40R PINEY ISLAND NOT AVBL WILMINGTON FAIR 76 60 57 S12 30.41S $$ NCZ011>013-027>030-043-044-078>080-089-090>093-098-222300- COASTAL PLAIN CITY SKY/WX TMP DP RH WIND PRES REMARKS AHOSKIE FAIR 74 60 61 S3 30.38R CLINTON FAIR 77 62 60 SW3 30.40S ELIZABETHTOWN NOT AVBL GOLDSBORO FAIR 78 61 55 SW9 30.37F GREENVILLE FAIR 77 61 57 SW7 30.39S HAVELOCK MOSUNNY 75 63 66 S12 30.42S KENANSVILLE PTSUNNY 77 63 61 W6 30.39F KINSTON FAIR 79 63 57 W7 30.40S NEW BERN FAIR 75 62 64 S13 30.41R RICHLANDS PTSUNNY 77 62 59 S10 30.40S ROCKY MOUNT FAIR 76 60 57 SW9 30.38S WASHINGTON FAIR 77 62 59 CALM 30.39S WHITEVILLE PTSUNNY 77 58 51 S6 30.39S HAZE $$ AMZ130-135-150-152-154-156-158-170-250-252-270-ANZ085-086-088-633-658-670-222300- MARINE OBSERVATIONS STATION/POSITION TIME TEMP WIND PRES WAVE SWELL AIR SEA DIR/SP/G HT/PER HT/PER (UTC) (F) (DEG/KT/KT) (MB) (FT/S) (FT/S) CHESAPEAKE LIGHT NOT AVBL 64 E VA BEACH 2150 54 51 190/ 10/ 10 1030.0 3/13 3/13 DUCK 2200 61 45 130/ 7/ 8 1028.9 2 E DUCK 2200 49 N/A 3/13 2/13 OREGON INLET 2200 65 66 180/ 11/ 13 1029.9 13E OREGON INLT 2148 49 N/A 3/14 3/14 HATTERAS CG 2200 67 61 210/ 5/ 8 1030.3 DIAMOND BUOY 2210 73 240/ 12/ 14 1031.0 CAPE LOOKOUT 2200 210/ 7/ 8 1030.6 BEAUFORT LAB 2200 65 60 180/ 8/ 10 1030.3 30 SE NEW RVR IN 2108 71 70 230/ 6/ 10 1030.8 30 SE NEW RVR IN 2200 70 N/A 4/ 8 2/17 27 SE WRIGHTSVLE 2108 70 69 250/ 4/ 6 1030.8 5 SE WRIGHTSVLE 2208 66 62 200/ 6/ 8 1030.0 225 S CAPE HAT 2150 73 74 150/ 8/ 10 1031.2 5/ 8 5/ 8 41 SE CHARLESTON 2210 71 30/ 4/ 4 1030.1 $$

USA.gov is the U.S. government's official web portal to all federal, state and local government web resources and services.